Retour au catalogue

BREEZE-M DEB

LostHEO
NORAD 48532·DEBRIS·🇷🇺 Russia

Lancé Mar 14, 2008 depuis Baikonur Cosmodrome

Loading…

Prochains Passages (prochaines 24 heures)

TLE

PériméSource: Space-Track

Époque: Jul 19, 2026, 02:07 UTC

1 48532U 08011DX  26200.08887195  .00001556  00000-0  97031-1 0  9996
2 48532  49.0987  41.4250 6331550 204.6133 103.1346  3.05580921 58160

Suivez BREEZE-M DEB en temps réel avec AllMySat

Download on the App Store